When you browse on this site, cookies collect data to enhance your experience and personalize the content and advertising you see.
Visit our Privacy Policy to learn more. By continuing to use the site, you agree to this use of cookies and data.
  • In Österreich
  • Länderverzeichnis
  • Für 7 Tage
  • Wassertemperatur
  • Satellitenkarten
  • Wetterkarte
  • News
  • Widgets
  • user-avatar
    Anmelden

    Stündliche Wetter Tracy

    Heute, 25 April, Donnerstag

    Zeit Temperatur Niederschläge Wind Luftdruck Luftfeuchtigkeit
    00:00 +21°C° 0 mm 2 m/S 759 mmHg 60%
    01:00 +21°C° 0 mm 2 m/S 759 mmHg 62%
    02:00 +20°C° 0 mm 2 m/S 759 mmHg 63%
    03:00 +21°C° 0 mm 1 m/S 759 mmHg 64%
    04:00 +19°C° 0 mm 1 m/S 758 mmHg 69%
    05:00 +20°C° 0 mm 1 m/S 759 mmHg 66%
    06:00 +21°C° 0 mm 1 m/S 759 mmHg 63%
    07:00 +22°C° 0 mm 1 m/S 759 mmHg 61%
    08:00 +24°C° 0 mm 1 m/S 759 mmHg 54%
    09:00 +27°C° 0 mm 1 m/S 759 mmHg 47%
    10:00 +29°C° 0 mm 1 m/S 759 mmHg 40%
    11:00 +31°C° 0 mm 1 m/S 759 mmHg 37%
    12:00 +32°C° 0 mm 1 m/S 758 mmHg 34%
    13:00 +33°C° 0 mm 1 m/S 758 mmHg 31%
    14:00 +34°C° 0 mm 2 m/S 758 mmHg 31%
    15:00 +34°C° 0 mm 2 m/S 758 mmHg 31%
    16:00 +34°C° 0 mm 3 m/S 758 mmHg 31%
    17:00 +30°C° 0 mm 3 m/S 758 mmHg 35%
    18:00 +28°C° 0 mm 3 m/S 758 mmHg 39%
    19:00 +25°C° 0 mm 3 m/S 758 mmHg 43%
    20:00 +24°C° 0 mm 2 m/S 758 mmHg 45%
    21:00 +23°C° 0 mm 2 m/S 759 mmHg 46%
    22:00 +20°C° 0 mm 2 m/S 759 mmHg 47%
    23:00 +20°C° 0 mm 2 m/S 759 mmHg 48%

    Morgen, 26 April, Freitag

    Zeit Temperatur Niederschläge Wind Luftdruck Luftfeuchtigkeit
    00:00 +20°C° 0 mm 1 m/S 759 mmHg 49%
    01:00 +20°C° 0 mm 1 m/S 759 mmHg 49%
    02:00 +19°C° 0 mm 1 m/S 759 mmHg 49%
    03:00 +19°C° 0 mm 1 m/S 759 mmHg 48%
    04:00 +18°C° 0 mm 1 m/S 759 mmHg 48%
    05:00 +19°C° 0 mm 1 m/S 759 mmHg 48%
    06:00 +20°C° 0 mm 1 m/S 759 mmHg 48%
    07:00 +21°C° 0 mm 1 m/S 759 mmHg 48%
    08:00 +23°C° 0 mm 1 m/S 759 mmHg 43%
    09:00 +25°C° 0 mm 1 m/S 759 mmHg 38%
    10:00 +27°C° 0 mm 1 m/S 759 mmHg 33%
    11:00 +29°C° 0 mm 1 m/S 759 mmHg 31%
    12:00 +30°C° 0 mm 2 m/S 759 mmHg 29%
    13:00 +32°C° 0 mm 2 m/S 758 mmHg 26%
    14:00 +32°C° 0 mm 2 m/S 758 mmHg 28%
    15:00 +32°C° 0 mm 2 m/S 758 mmHg 29%
    16:00 +33°C° 0 mm 3 m/S 758 mmHg 31%
    17:00 +30°C° 0 mm 2 m/S 758 mmHg 36%
    18:00 +27°C° 0 mm 2 m/S 758 mmHg 41%
    19:00 +25°C° 0 mm 2 m/S 758 mmHg 47%
    20:00 +24°C° 0 mm 2 m/S 758 mmHg 46%
    21:00 +23°C° 0 mm 2 m/S 758 mmHg 46%
    22:00 +21°C° 0 mm 2 m/S 759 mmHg 46%
    23:00 +20°C° 0 mm 2 m/S 759 mmHg 46%

    übermorgen, 27 April, Samstag

    Zeit Temperatur Niederschläge Wind Luftdruck Luftfeuchtigkeit
    00:00 +19°C° 0 mm 2 m/S 758 mmHg 46%
    01:00 +20°C° 0 mm 1 m/S 758 mmHg 46%
    02:00 +19°C° 0 mm 1 m/S 758 mmHg 47%
    03:00 +19°C° 0 mm 1 m/S 758 mmHg 48%
    04:00 +18°C° 0 mm 1 m/S 758 mmHg 49%
    05:00 +19°C° 0 mm 1 m/S 758 mmHg 49%
    06:00 +20°C° 0 mm 1 m/S 758 mmHg 48%
    07:00 +21°C° 0 mm 1 m/S 758 mmHg 48%
    08:00 +23°C° 0 mm 1 m/S 758 mmHg 45%
    09:00 +25°C° 0 mm 1 m/S 757 mmHg 41%
    10:00 +27°C° 0 mm 1 m/S 757 mmHg 37%
    11:00 +29°C° 0 mm 1 m/S 757 mmHg 34%
    12:00 +30°C° 0 mm 1 m/S 757 mmHg 31%
    13:00 +32°C° 0 mm 1 m/S 757 mmHg 28%
    14:00 +31°C° 0 mm 2 m/S 756 mmHg 28%
    15:00 +31°C° 0 mm 2 m/S 756 mmHg 29%
    16:00 +31°C° 0 mm 2 m/S 755 mmHg 29%
    17:00 +28°C° 0 mm 3 m/S 756 mmHg 34%
    18:00 +26°C° 0 mm 3 m/S 756 mmHg 39%
    19:00 +24°C° 0 mm 3 m/S 756 mmHg 44%
    20:00 +22°C° 0 mm 3 m/S 756 mmHg 45%
    21:00 +21°C° 0 mm 2 m/S 756 mmHg 46%
    22:00 +20°C° 0 mm 2 m/S 757 mmHg 47%
    23:00 +19°C° 0 mm 2 m/S 756 mmHg 49%

    28 April, Sonntag

    Zeit Temperatur Niederschläge Wind Luftdruck Luftfeuchtigkeit
    00:00 +19°C° 0 mm 1 m/S 756 mmHg 50%
    01:00 +18°C° 0 mm 1 m/S 756 mmHg 52%
    02:00 +18°C° 0 mm 1 m/S 756 mmHg 52%
    03:00 +18°C° 0 mm 1 m/S 756 mmHg 52%
    04:00 +16°C° 0 mm 2 m/S 756 mmHg 52%
    05:00 +18°C° 0 mm 1 m/S 756 mmHg 52%
    06:00 +19°C° 0 mm 1 m/S 756 mmHg 52%
    07:00 +20°C° 0 mm 1 m/S 756 mmHg 52%
    08:00 +22°C° 0 mm 1 m/S 756 mmHg 47%
    09:00 +24°C° 0 mm 1 m/S 756 mmHg 42%
    10:00 +26°C° 0 mm 1 m/S 756 mmHg 37%
    11:00 +28°C° 0 mm 1 m/S 755 mmHg 33%
    12:00 +29°C° 0 mm 1 m/S 755 mmHg 30%
    13:00 +30°C° 0 mm 1 m/S 754 mmHg 26%
    14:00 +30°C° 0 mm 1 m/S 754 mmHg 27%
    15:00 +30°C° 0 mm 2 m/S 754 mmHg 27%
    16:00 +30°C° 0 mm 3 m/S 753 mmHg 28%
    17:00 +27°C° 0 mm 3 m/S 754 mmHg 34%
    18:00 +24°C° 0 mm 3 m/S 754 mmHg 40%
    19:00 +21°C° 0 mm 3 m/S 754 mmHg 46%
    20:00 +19°C° 0 mm 3 m/S 754 mmHg 48%
    21:00 +18°C° 0 mm 3 m/S 755 mmHg 50%
    22:00 +17°C° 0 mm 2 m/S 755 mmHg 52%
    23:00 +16°C° 0 mm 2 m/S 755 mmHg 54%

    29 April, Montag

    Zeit Temperatur Niederschläge Wind Luftdruck Luftfeuchtigkeit
    00:00 +16°C° 0 mm 2 m/S 755 mmHg 57%
    01:00 +15°C° 0 mm 1 m/S 755 mmHg 59%
    02:00 +15°C° 0 mm 1 m/S 755 mmHg 60%
    03:00 +14°C° 0 mm 2 m/S 755 mmHg 60%
    04:00 +14°C° 0 mm 2 m/S 755 mmHg 61%
    05:00 +15°C° 0 mm 1 m/S 755 mmHg 59%
    06:00 +16°C° 0 mm 1 m/S 756 mmHg 56%
    07:00 +18°C° 0 mm 1 m/S 756 mmHg 54%
    08:00 +20°C° 0 mm 1 m/S 756 mmHg 49%
    09:00 +21°C° 0 mm 2 m/S 756 mmHg 43%
    10:00 +24°C° 0 mm 2 m/S 756 mmHg 37%
    11:00 +25°C° 0 mm 2 m/S 756 mmHg 35%
    12:00 +27°C° 0 mm 2 m/S 756 mmHg 33%
    13:00 +28°C° 0 mm 2 m/S 756 mmHg 31%
    14:00 +28°C° 0 mm 3 m/S 755 mmHg 31%
    15:00 +28°C° 0 mm 3 m/S 755 mmHg 32%
    16:00 +27°C° 0 mm 4 m/S 755 mmHg 33%
    17:00 +25°C° 0 mm 4 m/S 755 mmHg 39%
    18:00 +22°C° 0 mm 3 m/S 756 mmHg 46%
    19:00 +19°C° 0 mm 3 m/S 756 mmHg 52%
    20:00 +18°C° 0 mm 3 m/S 756 mmHg 56%
    21:00 +17°C° 0 mm 3 m/S 757 mmHg 59%
    22:00 +16°C° 0 mm 3 m/S 757 mmHg 63%
    23:00 +15°C° 0 mm 2 m/S 757 mmHg 64%

    30 April, Dienstag

    Zeit Temperatur Niederschläge Wind Luftdruck Luftfeuchtigkeit
    00:00 +15°C° 0 mm 2 m/S 757 mmHg 66%
    01:00 +14°C° 0 mm 2 m/S 757 mmHg 67%
    02:00 +14°C° 0 mm 2 m/S 757 mmHg 67%
    03:00 +13°C° 0 mm 2 m/S 757 mmHg 67%
    04:00 +13°C° 0 mm 2 m/S 757 mmHg 67%
    05:00 +14°C° 0 mm 2 m/S 757 mmHg 66%
    06:00 +15°C° 0 mm 2 m/S 757 mmHg 65%
    07:00 +16°C° 0 mm 2 m/S 758 mmHg 64%
    08:00 +17°C° 0 mm 2 m/S 758 mmHg 57%
    09:00 +19°C° 0 mm 3 m/S 758 mmHg 50%
    10:00 +20°C° 0 mm 3 m/S 758 mmHg 42%
    11:00 +21°C° 0 mm 3 m/S 758 mmHg 41%
    12:00 +22°C° 0 mm 3 m/S 758 mmHg 39%
    13:00 +24°C° 0 mm 3 m/S 758 mmHg 37%
    14:00 +23°C° 0 mm 4 m/S 758 mmHg 38%
    15:00 +23°C° 0 mm 4 m/S 757 mmHg 39%
    16:00 +23°C° 0 mm 4 m/S 757 mmHg 41%
    17:00 +21°C° 0 mm 3 m/S 758 mmHg 44%
    18:00 +20°C° 0 mm 3 m/S 758 mmHg 47%
    19:00 +18°C° 0 mm 2 m/S 758 mmHg 51%
    20:00 +17°C° 0 mm 2 m/S 759 mmHg 51%
    21:00 +17°C° 0 mm 2 m/S 759 mmHg 51%
    22:00 +16°C° 0 mm 3 m/S 759 mmHg 51%
    23:00 +15°C° 0 mm 2 m/S 759 mmHg 51%
    Mehr zeigen